CAPE
538 1109 1512 1743 1993 1867 1676 1697 1891 1668 1960 1788 1698 1416 1400 1965 1704 1879 1501 1617 1654 1610 1705 1868 1622 1551 1466 2224 2011 1087 1285 1777 1834 1661 1494 1501 1845 1714 724 519 420 677 1160
950 1166 1540 1643 1531 1624 1836 1923 1947 1957 1706 1677 1702 1618 1813 1543 1540 1445 1472 1351 1654 1287 1428 1751 1703 1602 1290 1530 2093 1962 1942 1664 1767 1685 1704 1836 1934 1471 1524 1622 1824 620 1449
908 1297 1624 1765 2147 1965 2086 2168 1965 1924 1923 2040 1958 1922 1536 1614 1543 1381 1277 1349 1294 1308 1472 1597 1618 1771 2005 1036 1242 1401 1626 1401 1486 1208 1106 999 797 773 1461 1600 1555 1968 1683
1011 1224 1637 1579 1826 1885 2018 2083 2186 2221 2078 1909 1881 1578 1580 1739 1637 1517 1260 1148 1121 1114 1163 1361 1576 1786 1674 1530 1294 1225 906 960 1276 1241 779 758 1078 1207 539 712 830 876 1497
820 1344 1408 1758 1759 2033 2103 2141 2184 2088 2156 2029 1947 1877 1910 1596 1599 1415 1449 1443 1422 1269 1139 1194 1342 1532 1537 1406 1485 1394 1154 1222 635 466 618 825 1154 1576 1574 1369 1160 1497 922
690 1249 1299 1568 1742 1959 2134 1653 1725 2046 2192 1844 1980 1906 1877 1713 1665 1477 1459 1250 1434 1347 1374 1236 1257 1205 1083 958 1034 1262 1383 444 144 151 525 1149 1183 1428 966 1055 840 863 1207
790 1090 1280 1600 1735 1615 1814 1795 1029 1474 1600 1701 2205 1929 1693 1688 1480 1258 1383 1189 1055 911 1323 1201 1229 1163 906 920 1162 1340 1219 18 0 333 977 1197 1571 1380 1158 1121 942 567 646
525 685 1325 1395 1477 1539 1255 1108 1214 1386 1496 1613 1674 1556 1410 1267 1045 779 707 734 845 1018 1014 1323 1095 1210 1020 711 971 1506 956 499 353 727 884 1047 1533 1419 1541 1092 1418 628 490
253 646 1076 886 1208 1500 1218 1290 1465 1446 1337 1286 1167 945 827 765 847 1008 1109 520 434 787 438 717 1018 674 982 606 988 1205 1269 791 574 839 671 1072 1244 1479 1120 729 1068 753 552
413 571 666 419 928 1272 1077 1076 1169 1194 1167 1144 1069 1038 1151 1441 1604 1348 624 326 299 442 583 572 812 281 657 808 1041 881 1558 958 247 288 631 997 1451 1537 1287 1252 1230 1213 1070
304 442 360 220 460 648 906 1197 1256 1350 1288 1293 1256 1231 1299 1038 1161 1139 620 616 583 899 995 825 491 256 607 1038 924 759 910 232 44 191 552 1285 1398 1616 1448 1353 1152 956 896
21 39 59 67 71 222 400 732 850 1046 891 692 571 876 883 906 1017 1146 1401 1639 1834 1323 1072 1051 765 509 915 924 828 683 254 211 125 352 721 1158 1308 1336 1325 1254 1265 1105 979
0 0 0 0 2 0 46 361 452 708 731 1 416 796 677 760 1258 637 107 153 654 1432 1032 870 958 704 425 373 346 516 460 194 80 318 793 1028 1100 1204 815 371 193 36 0
0 0 0 1 4 0 55 337 534 346 9 377 542 631 400 316 427 0 0 2 47 321 327 279 282 274 264 302 388 647 42 4 0 155 680 998 756 688 548 33 0 0 0
0 0 6 23 42 18 269 348 648 601 594 352 307 364 147 38 79 31 0 0 58 275 180 188 306 349 366 450 502 580 429 0 0 105 677 1131 865 436 48 0 0 0 0
0 0 0 18 31 34 358 575 633 713 863 95 347 60 5 2 74 145 0 2 123 92 91 286 442 566 815 963 878 906 813 340 0 45 596 1203 647 32 0 0 0 0 0
0 0 0 0 91 239 294 367 517 641 755 120 300 209 379 487 454 167 53 62 203 343 343 168 465 686 812 756 563 933 539 260 3 47 634 798 622 14 0 1 0 0 0
0 0 0 37 220 236 277 263 357 516 590 10 321 665 696 815 721 457 197 311 416 576 581 710 703 451 226 365 605 421 250 170 9 71 593 630 497 60 107 42 9 1 0
0 0 17 215 270 260 250 496 787 284 382 650 875 1020 1328 964 1120 483 324 405 604 878 993 890 762 843 478 559 578 370 201 178 18 73 406 643 570 150 13 91 23 0 0
0 0 161 232 218 237 220 572 820 810 722 764 802 1018 1154 813 567 291 291 475 554 581 494 461 646 798 689 475 384 620 189 162 199 200 290 716 644 350 53 23 82 17 6
0 24 203 139 137 106 101 567 764 800 520 787 894 752 939 738 759 373 21 54 191 304 277 387 271 139 292 291 440 251 227 115 344 397 441 623 666 537 233 99 23 13 0
28 0 96 0 37 34 71 485 473 696 565 880 748 534 1204 1647 754 513 5 9 3 86 17 25 130 9 0 38 388 236 277 120 21 256 241 503 612 545 513 321 141 17 0
23 2 10 12 0 15 127 624 378 699 718 855 691 690 1253 1533 757 617 419 266 44 0 23 0 0 0 0 0 0 253 254 229 25 0 0 214 543 378 177 325 274 212 84
32 20 38 176 0 0 162 702 581 840 826 659 479 655 1159 1400 1446 1615 1453 1554 306 0 0 0 0 0 0 0 0 0 0 0 15 0 0 0 0 0 0 0 20 59 104
28 57 78 182 88 0 93 554 708 953 656 640 383 570 1026 1209 1451 1609 1619 1430 812 1 0 0 0 0 0 0 0 0 0 0 0 0 0 0 0 0 0 0 0 0 0
24 60 188 245 195 38 72 481 481 844 643 590 382 263 1037 1283 1628 1664 1330 1404 999 549 16 0 0 0 0 0 0 0 0 0 0 0 0 0 0 0 0 0 0 0 0
CIN
-10 -2 -1 0 0 0 0 0 0 -3 -1 -1 0 -2 -3 0 0 0 -1 0 0 0 0 0 0 -1 -10 0 0 -18 -11 0 0 -2 -24 -26 0 0 -62 -89 -109 -76 -18
-5 -2 0 0 0 -1 0 0 0 0 0 0 0 0 0 0 0 0 0 0 0 0 -1 0 0 0 -5 -3 0 0 0 0 -1 -4 -4 -2 0 -11 -4 -1 -1 -78 -1
-8 -1 0 -1 0 0 0 0 0 0 0 0 0 0 0 0 0 0 0 0 0 0 0 0 0 0 0 -21 -6 -7 -9 -25 -32 -56 -60 -68 -73 -73 -7 0 0 0 0
-10 -3 -1 -1 0 -2 0 0 0 0 0 0 0 0 0 0 0 0 0 0 0 0 0 0 0 0 -1 -6 -17 -22 -39 -51 -37 -39 -77 -89 -51 -32 -93 -38 -28 -39 0
-19 -2 0 0 0 0 0 0 0 0 0 0 0 0 0 0 0 0 0 0 0 0 -1 -2 0 0 -3 -20 -12 -18 -37 -31 -58 -68 -84 -67 -29 0 0 0 -7 -2 -48
-26 -1 0 0 0 0 0 -1 -1 0 0 0 0 0 0 0 0 0 0 0 0 0 -1 -6 -4 -2 -27 -36 -38 -24 -9 -86 -121 -111 -66 -21 -14 0 -18 -17 -40 -57 -12
-17 -3 -1 0 0 0 0 0 -31 -1 0 0 0 0 0 0 0 -1 0 0 0 -9 0 -4 -6 -6 -30 -26 -26 -20 -25 -163 0 -102 -28 -19 -1 -4 -14 -17 -28 -69 -44
-64 -37 0 -1 0 -1 -7 -23 -16 -4 0 0 0 0 -1 -7 -15 -20 -9 -3 -1 -3 -6 0 -8 -11 -18 -38 -34 -24 -44 -76 -103 -56 -40 -28 -1 -1 0 -6 0 -49 -58
-94 -49 -10 -31 -2 -1 -8 -4 0 -2 -1 -4 -13 -26 -24 -19 -10 -7 -5 -8 -12 -7 -25 -21 -17 -44 -21 -54 -35 -28 -35 -54 -74 -54 -57 -32 -22 -7 -14 -35 -5 -22 -44
-57 -49 -47 -81 -24 -10 -27 -15 -11 -5 -4 -4 -7 -9 -9 -5 -1 -2 -20 -15 -17 -13 -9 -38 -41 -87 -57 -49 -32 -42 -18 -45 -103 -99 -64 -37 -12 -1 0 -2 -2 -3 -4
-45 -54 -85 -120 -101 -72 -38 -7 -14 -1 -1 -7 -18 -18 -10 -39 -38 -15 -24 -7 -8 -5 -3 -38 -76 -110 -70 -40 -43 -54 -48 -119 -227 -146 -63 -17 -10 0 0 0 -1 -2 -4
-157 -132 -141 -160 -184 -139 -91 -50 -45 -34 -45 -60 -77 -58 -66 -70 -60 -39 -17 -10 0 0 -25 -53 -80 -94 -64 -73 -73 -69 -110 -148 -208 -115 -52 -24 -16 -11 -6 0 0 -1 -2
0 0 0 0 -18 -7 -180 -86 -98 -79 -78 -19 -107 -75 -97 -88 -72 -105 -152 -137 -91 -20 -48 -81 -86 -104 -106 -106 -110 -88 -99 -191 -255 -156 -69 -44 -29 -20 -28 -66 -142 -169 -52
0 0 0 -24 -24 0 -170 -75 -71 -102 -195 -109 -108 -102 -99 -121 -131 -1 0 -155 -192 -129 -122 -130 -142 -139 -126 -109 -96 -81 -267 -73 0 -237 -93 -53 -49 -46 -54 -216 0 0 0
0 0 -65 -147 -153 -196 -82 -72 -64 -69 -74 -105 -131 -112 -125 -166 -180 -91 0 0 -236 -111 -135 -139 -115 -108 -101 -90 -92 -84 -116 0 0 -269 -96 -56 -51 -87 -230 0 0 0 0
0 0 0 -177 -157 -166 -60 -53 -55 -62 -64 -185 -103 -164 -41 -90 -215 -196 0 -202 -214 -241 -241 -144 -107 -81 -69 -70 -67 -70 -73 -146 0 -270 -109 -52 -69 -174 0 0 0 0 0
0 0 0 0 -110 -78 -64 -65 -62 -48 -55 -167 -110 -140 -117 -126 -118 -169 -252 -260 -175 -161 -164 -195 -142 -113 -105 -115 -104 -74 -98 -148 -381 -277 -108 -85 -94 -179 0 -51 -23 0 0
0 0 0 -117 -70 -68 -68 -56 -54 -55 -51 -118 -102 -87 -87 -97 -100 -106 -148 -107 -120 -125 -123 -112 -100 -110 -158 -132 -79 -91 -128 -182 -377 -299 -127 -117 -159 -328 -276 -290 -287 -163 0
0 0 -44 -66 -63 -60 -65 -51 -43 -70 -56 -53 -59 -59 -51 -43 -54 -75 -82 -79 -102 -85 -87 -97 -96 -86 -88 -87 -97 -111 -174 -216 -285 -251 -177 -153 -189 -267 -326 -254 -290 0 0
0 0 -73 -66 -72 -75 -69 -50 -37 -42 -46 -51 -51 -48 -62 -67 -85 -94 -90 -98 -115 -107 -115 -138 -88 -89 -93 -141 -127 -120 -236 -215 -230 -253 -256 -183 -202 -260 -350 -358 -300 -344 -343
0 -92 -71 -84 -87 -124 -126 -54 -37 -26 -52 -54 -59 -51 -40 -59 -57 -111 -240 -191 -154 -141 -158 -128 -152 -188 -166 -189 -142 -210 -224 -281 -233 -248 -276 -232 -240 -236 -297 -353 -414 -424 -2
-166 0 -93 0 -134 -155 -127 -73 -57 -35 -48 -53 -62 -52 -37 -23 -70 -117 -72 -321 -341 -213 -255 -167 -179 -202 0 -268 -151 -191 -155 -220 -328 -317 -351 -293 -253 -262 -266 -307 -359 -435 0
-171 -23 -71 -63 0 -119 -98 -67 -87 -67 -55 -41 -57 -68 -42 -42 -62 -78 -101 -144 -266 0 -226 0 0 0 0 0 0 -173 -159 -170 -319 0 0 -355 -285 -335 -430 -340 -342 -361 -399
-185 -158 -108 -72 0 0 -107 -37 -39 -38 -41 -53 -78 -72 -53 -46 -43 -40 -58 -72 -185 0 0 0 0 0 0 0 0 0 0 0 -268 0 0 0 0 0 0 0 -492 -460 -417
-197 -165 -168 -71 -101 0 -117 -42 -37 -41 -52 -53 -89 -78 -60 -69 -52 -49 -47 -67 -117 -18 0 0 0 0 0 0 0 0 0 0 0 0 0 0 0 0 0 0 0 0 0
-224 -192 -148 -102 -82 -138 -104 -52 -44 -38 -58 -50 -64 -92 -48 -45 -36 -43 -59 -63 -104 -161 -57 0 0 0 0 0 0 0 0 0 0 0 0 0 0 0 0 0 0 0 0
Wind_Speed
25 25 25 26 26 26 24 22 19 21 26 19 14 15 14 11 12 14 15 15 14 21 19 6 13 9 11 5 3 6 8 10 8 11 24 21 25 21 16 10 3 12 21
26 26 26 27 26 26 25 23 19 19 17 19 19 20 19 17 17 15 14 13 10 8 23 21 23 20 19 13 12 12 10 10 9 2 1 16 21 22 23 25 25 25 25
26 26 27 27 27 26 25 25 23 21 10 15 17 19 20 17 18 17 16 13 9 3 11 20 24 26 24 21 19 15 15 12 7 2 17 10 24 25 25 23 23 24 23
27 27 27 27 27 27 26 28 26 25 7 18 21 21 20 20 18 15 13 11 2 8 14 18 23 27 27 25 25 20 17 13 13 13 13 21 21 22 21 20 19 20 19
28 28 27 27 28 28 29 29 29 29 29 27 25 24 24 22 22 19 4 2 10 18 20 20 21 24 26 27 26 23 19 20 18 19 19 18 19 19 19 19 16 17 18
29 28 28 28 29 29 30 28 28 29 29 27 23 24 23 22 24 18 13 15 19 22 23 24 22 22 25 24 25 24 20 19 23 21 21 18 19 19 17 16 16 16 16
29 28 28 29 29 30 30 30 29 29 28 26 25 25 26 25 18 17 20 21 22 24 24 24 23 24 25 23 22 22 23 21 23 20 20 19 19 18 17 17 17 17 17
29 29 29 30 29 30 30 29 30 29 27 27 26 26 25 25 24 20 20 22 23 25 25 25 25 26 24 24 22 24 24 22 21 21 20 20 20 19 17 16 16 15 16
29 29 29 29 30 30 29 28 28 28 27 27 26 25 24 23 21 21 20 22 25 26 28 28 27 26 26 25 24 23 25 23 23 22 22 21 20 19 17 16 16 15 16
29 29 29 29 29 28 28 28 27 27 26 26 25 24 23 22 21 19 20 19 25 29 30 31 29 28 28 27 25 23 25 23 23 21 20 19 20 20 18 17 16 14 14
29 29 29 29 29 28 26 26 26 26 25 25 24 24 23 23 22 21 21 24 28 29 31 31 30 30 28 26 24 21 21 22 20 20 19 20 20 20 19 18 17 16 16
30 29 29 30 29 27 26 26 25 24 24 24 24 25 25 24 24 23 23 23 26 29 32 32 31 30 27 24 22 21 22 23 21 20 20 21 21 21 21 21 21 21 20
30 30 30 30 29 29 27 27 26 25 22 23 23 24 26 26 27 25 23 23 25 27 29 30 30 28 27 25 23 21 20 21 22 21 21 21 22 22 21 22 22 22 22
32 31 30 30 29 28 27 28 27 25 23 23 22 25 27 28 28 25 24 26 27 28 29 29 30 29 27 25 23 22 22 23 22 21 21 21 22 22 22 23 24 24 24
32 31 31 30 29 28 27 28 27 25 24 21 23 24 27 28 26 26 26 26 26 28 27 28 28 26 24 23 21 21 21 21 21 21 20 21 22 22 23 23 23 24 24
32 31 31 30 29 27 27 27 26 25 23 24 25 25 26 25 25 26 25 26 26 27 25 25 25 24 22 21 19 19 18 19 20 20 20 20 20 21 21 21 21 21 22
32 32 31 30 29 29 27 27 26 25 24 25 25 25 24 25 24 25 26 26 27 26 24 24 23 23 22 20 19 19 19 21 21 21 20 19 19 19 19 19 18 18 18
31 32 31 31 30 29 28 26 25 26 26 26 24 23 24 24 24 26 27 26 25 24 24 23 23 23 22 21 20 20 21 22 21 21 19 18 18 18 17 17 17 17 16
30 29 30 32 31 30 28 25 24 27 27 27 24 23 23 22 24 26 26 26 25 22 21 22 23 23 23 22 21 20 22 22 20 19 18 17 16 16 15 15 14 14 14
29 27 26 30 30 31 29 24 21 24 27 27 26 25 25 25 27 26 24 24 25 24 23 23 25 24 22 22 22 22 21 19 18 17 16 15 14 14 13 12 12 11 11
28 29 26 28 33 33 28 27 22 25 27 27 26 20 15 20 25 25 25 24 25 26 23 16 11 19 22 21 23 20 18 16 17 16 14 13 13 12 12 11 10 9 9
29 30 27 30 32 33 33 26 24 26 28 26 25 24 22 22 25 26 25 24 25 26 23 20 23 23 20 20 21 20 19 15 14 15 14 13 12 11 10 9 9 8 7
33 29 29 29 33 33 33 28 20 21 25 26 25 24 24 23 26 26 24 24 25 26 27 25 25 23 22 20 19 19 17 16 14 14 13 13 12 10 8 8 7 6 6
34 34 30 30 33 32 25 31 20 29 32 29 26 24 24 24 26 24 24 24 24 26 27 26 24 22 22 23 19 16 16 15 13 12 11 11 11 9 7 8 7 6 6
31 32 32 31 31 33 19 30 14 31 32 29 27 26 25 24 23 24 24 25 24 24 27 27 24 23 21 20 19 17 16 15 15 14 10 8 9 8 6 7 7 7 8
27 29 32 32 33 32 26 29 31 31 33 32 29 27 27 25 24 25 24 26 26 25 26 26 24 23 21 20 20 19 17 15 13 13 13 11 9 8 9 9 8 9 10
Wind_Direction
121 113 105 105 104 95 87 74 68 83 96 69 50 48 45 31 37 46 53 57 56 74 69 37 176 177 172 160 140 158 160 162 163 166 128 65 68 53 39 17 287 22 51
112 111 112 110 103 100 94 79 69 75 63 68 69 71 64 60 57 53 50 53 47 39 86 161 159 166 166 177 176 175 177 176 176 177 20 50 58 57 62 81 87 92 84
107 112 116 110 109 99 91 93 83 79 42 54 58 65 71 59 63 61 59 51 45 14 104 172 163 155 159 166 170 180 181 188 204 11 51 16 88 87 88 111 114 104 92
110 114 113 107 108 106 99 105 96 89 39 65 73 72 68 68 61 57 54 49 5 200 184 179 166 153 152 155 158 171 183 196 198 194 186 143 134 123 128 136 142 129 126
113 116 111 109 116 113 118 131 122 114 112 99 91 84 87 80 79 72 24 262 199 177 168 171 170 167 155 151 151 164 184 172 179 177 164 155 149 145 146 144 153 146 132
116 119 116 115 126 128 134 141 139 122 113 99 80 84 82 77 94 71 199 195 184 169 163 160 168 170 162 162 154 149 164 161 152 156 158 160 151 149 152 162 157 148 134
118 122 124 127 132 136 133 131 132 123 115 101 95 92 98 103 169 184 174 177 179 167 163 162 166 165 164 164 158 155 151 151 146 154 157 154 150 149 152 149 142 133 123
118 125 129 135 142 140 137 137 131 123 113 113 115 117 116 118 135 172 174 175 178 174 169 166 164 159 164 160 158 148 146 146 147 147 147 147 142 146 151 150 142 137 121
124 129 138 145 147 146 141 144 137 132 133 135 134 137 140 140 151 155 173 174 174 173 167 159 158 160 157 153 149 152 145 141 139 138 137 137 136 137 140 139 137 133 112
131 134 144 156 155 157 152 146 144 140 141 143 142 145 143 143 149 161 162 173 166 157 157 159 159 158 155 149 148 149 143 141 137 137 140 142 135 126 128 124 119 116 108
139 140 148 155 157 161 162 156 153 150 147 146 147 146 144 144 145 148 154 149 149 155 157 160 160 156 155 155 154 154 149 146 146 145 146 135 125 115 107 97 94 91 84
142 149 153 158 162 165 162 160 159 162 155 152 151 150 146 145 146 146 143 146 148 146 148 151 153 154 157 160 157 151 144 138 136 136 132 124 114 100 87 78 73 65 61
146 151 158 163 160 156 159 160 161 164 162 161 158 154 148 143 142 147 149 148 147 148 150 150 153 154 154 155 152 149 146 133 124 122 120 114 104 94 85 75 71 64 60
147 153 157 163 156 157 158 155 159 162 166 161 157 155 151 142 143 150 152 151 147 146 147 147 145 145 147 147 146 141 128 117 116 121 120 112 100 93 84 77 69 66 61
149 158 159 160 161 163 155 153 159 167 156 171 161 167 154 143 149 152 153 155 153 150 150 151 148 148 152 154 152 145 132 119 120 123 117 108 100 91 81 75 68 65 63
155 162 161 160 167 168 160 161 169 167 168 159 160 157 163 162 158 155 160 155 159 155 157 157 154 152 152 158 162 155 151 134 125 122 117 109 103 96 90 87 84 77 75
156 162 163 160 160 162 164 163 166 168 172 166 159 156 164 163 159 163 156 153 157 156 158 160 158 154 152 157 160 151 136 126 124 121 123 122 118 117 114 107 105 99 93
148 157 162 167 165 165 163 167 173 170 165 167 170 166 166 166 162 154 151 156 163 164 161 162 165 163 160 154 152 136 127 129 141 140 141 136 129 123 118 113 108 107 107
152 144 151 166 162 164 169 173 171 168 168 169 173 170 174 178 171 159 153 160 159 172 175 170 173 163 151 143 143 142 146 149 151 148 141 141 135 125 121 120 114 110 107
151 147 145 157 156 161 181 193 194 183 170 168 161 152 134 131 143 155 165 171 156 152 167 159 151 158 163 155 157 158 160 164 161 152 146 143 142 136 131 127 123 118 115
150 154 150 157 169 176 199 197 206 190 179 176 171 199 73 100 151 155 156 163 161 170 188 212 222 187 167 170 160 163 166 166 165 162 157 154 151 142 139 139 139 131 119
155 159 156 161 163 174 176 206 208 199 182 177 174 179 194 188 162 147 144 153 162 173 193 203 184 176 184 180 168 161 144 162 167 162 165 160 157 148 147 146 142 137 124
166 160 161 161 168 167 184 209 228 223 208 185 177 184 187 179 161 164 159 158 162 174 180 187 187 192 187 193 185 168 148 143 139 154 157 153 150 154 146 136 137 128 117
171 171 165 163 167 167 154 201 232 169 174 179 175 181 181 186 170 176 172 169 170 172 178 187 197 203 200 186 198 199 185 173 151 139 147 151 147 148 127 107 117 106 97
168 169 171 167 169 172 151 169 223 176 172 178 181 182 192 195 190 186 177 174 186 188 189 193 201 200 205 209 212 194 179 169 150 128 121 140 132 127 131 102 100 90 77
167 168 171 171 173 173 161 167 174 174 179 184 183 177 182 198 199 188 187 174 185 195 196 201 206 208 212 213 195 186 180 167 156 135 100 101 105 100 88 75 86 73 63